Volver al catálogo

COSMOS 2251 DEB

ActivoLEO
NORAD 35031·DEBRIS·🇷🇺 Russia

Lanzado Jun 16, 1993 desde Plesetsk Cosmodrome

Loading…

Próximos Pases (próximas 24 horas)

TLE

ActualizadoSource: Space-Track

Época: Sep 14, 2026, 21:15 UTC

1 35031U 93036AGU 26257.88554431  .00000261  00000-0  93712-4 0  9998
2 35031  74.0365 110.3853 0018418 142.4687 217.7757 14.38537823692540

Sigue COSMOS 2251 DEB en tiempo real con AllMySat

Download on the App Store